"TOA5","AWS1","CR1000","7964","CR1000.Std.14","CPU:AWS1_114.CR1","64363","TBL110"
"TIMESTAMP","RECORD","Wind_spd_WVc(1)","Wind_spd_WVc(2)","Air_Temp_Avg","Humidity_Avg","SW_upper_Wm2_Avg","Rain_Tot","Press_Avg","Issui_Tot","Depth_cm","SR50A_Raw","Quality","Ground_Temp_Avg(1)","Ground_Temp_Avg(2)","SW_lower_Wm2_Avg","Albedo_Avg","SWC_per(1)","SWC_per(2)","Period(1)","Period(2)"
"TS","RN","","","","","","","","","","","","","","","","","","",""
"","","WVc","WVc","Avg","Avg","Avg","Tot","Avg","Tot","Smp","Smp","Smp","Avg","Avg","Avg","Avg","Smp","Smp","Smp","Smp"
"2016-10-26 00:00:00",259117,1.003,115.5,11.51,100,0,0,867.4067,0,-2.045,3.135,227,11.07,12.06,0,0,51.55,58.21,33.68,35.26
"2016-10-26 00:10:00",259118,0.617,123.6,11.51,100,0,0,867.4783,0,-2.249,3.137,227,11.08,12.07,0,0,51.49,58.26,33.66,35.28
"2016-10-26 00:20:00",259119,0.509,116.2,11.45,100,0,0,867.5773,0,-1.997,3.135,234,11.13,12.07,0,0,51.49,58.26,33.66,35.28
"2016-10-26 00:30:00",259120,0.359,100.5,11.54,100,0,0,867.5941,0,-2.147,3.136,228,11.15,12.07,0,0,51.55,58.26,33.68,35.28
"2016-10-26 00:40:00",259121,0.142,1.65,11.56,100,0,0,867.6594,0,-1.866,3.133,232,11.17,12.08,0,0,51.55,58.32,33.68,35.29
"2016-10-26 00:50:00",259122,0.375,89.6,11.61,100,0,0,867.7057,0,-1.788,3.132,227,11.19,12.07,0,0,51.49,58.38,33.66,35.31
"2016-10-26 01:00:00",259123,0.48,93.1,11.64,100,0,0,867.8111,0,-1.938,3.133,235,11.2,12.06,0,0,51.49,58.32,33.66,35.29
"2016-10-26 01:10:00",259124,0.354,94.2,11.68,100,0,0,867.9122,0,-1.86,3.132,234,11.2,12.06,0,0,51.49,58.32,33.66,35.29
"2016-10-26 01:20:00",259125,0.184,1.558,11.69,100,0,0,868.0364,0,-1.963,3.133,229,11.19,12.07,0,0,51.49,58.38,33.66,35.31
"2016-10-26 01:30:00",259126,0.23,64.39,11.7,100,0,0,868.1564,0,-1.86,3.132,236,11.2,12.1,0,0,51.49,58.38,33.66,35.31
"2016-10-26 01:40:00",259127,0.157,325.6,11.79,100,0,0,868.2049,0,-1.807,3.131,235,11.19,12.09,0,0,51.49,58.44,33.66,35.32
"2016-10-26 01:50:00",259128,0.258,124.5,11.8,100,0,0,868.3419,0,-1.681,3.13,235,11.22,12.1,0,0,51.44,58.44,33.65,35.32
"2016-10-26 02:00:00",259129,0.277,108.9,11.82,100,0,0,868.3734,0,-1.909,3.132,235,11.22,12.1,0,0,51.44,58.44,33.65,35.32
"2016-10-26 02:10:00",259130,0.045,42.94,11.77,100,0,0,868.3292,0,-2.215,3.135,206,11.22,12.1,0,0,51.44,58.44,33.65,35.32
"2016-10-26 02:20:00",259131,0.138,50.11,11.78,100,0,0,868.403,0,-1.705,3.13,248,11.2,12.08,0,0,51.44,58.5,33.65,35.33
"2016-10-26 02:30:00",259132,0.113,93.4,11.81,100,0,0,868.2471,0,-1.579,3.129,221,11.2,12.08,0,0,51.44,58.5,33.65,35.33
"2016-10-26 02:40:00",259133,0.068,107.5,11.8,100,0,0,868.1649,0,-1.705,3.13,209,11.23,12.09,0,0,51.38,58.5,33.64,35.33
"2016-10-26 02:50:00",259134,0.491,141.3,11.72,100,0,0,867.9796,0,-1.783,3.131,210,11.28,12.06,0,0,51.44,58.5,33.65,35.33
"2016-10-26 03:00:00",259135,0.121,98.6,11.75,100,0,0,867.9522,0,-1.657,3.13,222,11.28,12.07,0,0,51.44,58.56,33.65,35.35
"2016-10-26 03:10:00",259136,0.132,124,11.74,100,0,0,867.9122,0,-1.554,3.129,222,11.28,12.06,0,0,51.38,58.56,33.64,35.35
"2016-10-26 03:20:00",259137,0.077,122.5,11.78,100,0,0,867.9122,0,-1.525,3.128,234,11.28,12.08,0,0,51.44,58.56,33.65,35.35
"2016-10-26 03:30:00",259138,0.002,121,11.82,100,0,0,868.007,0,-1.477,3.128,242,11.27,12.1,0,0,51.38,58.56,33.64,35.35
"2016-10-26 03:40:00",259139,0.045,125.2,11.54,100,0,0,867.8701,0,-1.768,3.133,229,11.26,12.1,0.007579089,0,51.38,58.61,33.64,35.36
"2016-10-26 03:50:00",259140,0.059,119.7,11.44,100,0,0,867.8701,0,-1.564,3.131,231,11.25,12.09,0.4357976,0,51.38,58.61,33.64,35.36
"2016-10-26 04:00:00",259141,0.148,149.9,11.6,100,0.04323316,0,868.028,0,-1.584,3.13,229,11.24,12.09,0.6518016,0.514,51.38,58.61,33.64,35.36
"2016-10-26 04:10:00",259142,0.304,130.9,11.46,100,0,0,868.009,0,-1.593,3.132,226,11.28,12.1,0.01136863,0,51.38,58.61,33.64,35.36
"2016-10-26 04:20:00",259143,0.075,187.9,11.48,100,0,0,867.9985,0,-1.637,3.131,238,11.3,12.09,0.2652681,0,51.38,58.61,33.64,35.36
"2016-10-26 04:30:00",259144,0.023,145.5,11.5,100,0,0,868.0807,0,-1.817,3.133,233,11.32,12.11,0.2917949,0,51.38,58.61,33.64,35.36
"2016-10-26 04:40:00",259145,0,0,11.45,100,0,0,868.1712,0,-1.69,3.132,240,11.32,12.1,0.6934866,0,51.38,58.67,33.64,35.37
"2016-10-26 04:50:00",259146,0.005,49.98,11.53,100,0,0,868.3545,0,-1.943,3.134,237,11.33,12.1,1.371815,0,51.33,58.61,33.62,35.36
"2016-10-26 05:00:00",259147,0.095,52.31,11.18,100,0,0,868.4156,0,-1.879,3.136,223,11.33,12.12,0.5608526,0,51.33,58.67,33.62,35.37
"2016-10-26 05:10:00",259148,0.002,53.86,11.18,100,0,0,868.5672,0,-1.874,3.135,232,11.33,12.13,1.102757,0,51.38,58.67,33.64,35.37
"2016-10-26 05:20:00",259149,0.114,179.2,10.7,100,0,0,868.6703,0,-2.149,3.142,211,11.33,12.1,0.5873794,0,51.33,58.67,33.62,35.37
"2016-10-26 05:30:00",259150,0.147,155,10.3,100,0,0,868.4346,0,-1.468,3.137,235,11.33,12.09,0.5115885,0,51.33,58.67,33.62,35.37
"2016-10-26 05:40:00",259151,0.316,137.1,10.63,100,0,0,868.5883,0,-1.7,3.134,233,11.33,12.1,1.50066,0,51.33,58.67,33.62,35.37
"2016-10-26 05:50:00",259152,0.339,47.91,11.06,100,0,0,868.5988,0,-1.078,3.126,248,11.32,12.09,1.352867,0,51.33,58.61,33.62,35.36
"2016-10-26 06:00:00",259153,0.744,34.9,11.67,99.8,0,0,868.5272,0,-1.482,3.129,277,11.33,12.09,1.224023,0,51.33,58.67,33.62,35.37
"2016-10-26 06:10:00",259154,0.369,37.09,11.49,96.2,0.003930287,0,868.5546,0,-1.076,3.131,338,11.33,12.1,0.7389612,0.064,51.33,58.67,33.62,35.37
"2016-10-26 06:20:00",259155,0.254,93.2,9.98,96.9,1.414903,0,868.6683,0,-0.669,3.127,281,11.32,12.1,0.3903231,0.102,51.27,58.67,33.61,35.37
"2016-10-26 06:30:00",259156,0.533,40.33,11.41,95.9,7.774107,0,868.6703,0,-2.804,3.141,244,11.32,12.11,2.872475,0.375,51.33,58.73,33.62,35.39
"2016-10-26 06:40:00",259157,0.113,30.75,11.59,89.8,10.14407,0,868.5356,0,-0.859,3.126,308,11.32,12.11,2.383624,0.236,51.33,58.73,33.62,35.39
"2016-10-26 06:50:00",259158,0.018,64.73,11.07,93.6,13.57128,0,868.4177,0,-0.703,3.124,372,11.28,12.11,2.773947,0.204,51.33,58.73,33.62,35.39
"2016-10-26 07:00:00",259159,0.182,171.5,10.94,92.2,23.72347,0,868.4177,0,0.196,3.109,457,11.27,12.11,5.165208,0.212,51.27,58.73,33.61,35.39
"2016-10-26 07:10:00",259160,0.098,117.6,11.75,88.2,33.44707,0,868.4177,0,-1.268,3.13,292,11.26,12.1,8.196866,0.247,51.33,58.73,33.62,35.39
"2016-10-26 07:20:00",259161,0.164,263.8,11.12,95.8,63.43511,0,868.4893,0,-0.85,3.124,282,11.28,12.1,9.943807,0.18,51.27,58.73,33.61,35.39
"2016-10-26 07:30:00",259162,0.07,299.3,11.51,95.1,37.02728,0,868.6703,0,-1.457,3.129,236,11.27,12.11,10.27726,0.278,51.27,58.73,33.61,35.39
"2016-10-26 07:40:00",259163,0,0,11.5,95.7,37.88797,0,868.6703,0,-1.534,3.13,250,11.25,12.15,12.67982,0.335,51.27,58.73,33.61,35.39
"2016-10-26 07:50:00",259164,0.271,139,11.49,96.6,42.25844,0,868.6703,0,-1.384,3.129,221,11.26,12.15,14.53669,0.345,51.27,58.73,33.61,35.39
"2016-10-26 08:00:00",259165,0.213,141.1,11.66,99.3,47.30101,0,868.6703,0,-1.501,3.128,222,11.27,12.15,15.95019,0.34,51.27,58.67,33.61,35.37
"2016-10-26 08:10:00",259166,0.278,143.3,12.18,100,46.24768,0,868.6703,0,-1.709,3.126,210,11.25,12.15,16.07904,0.348,51.27,58.73,33.61,35.39
"2016-10-26 08:20:00",259167,0.484,137.2,12.78,97.5,47.82766,0,868.5988,0,-1.772,3.124,224,11.24,12.13,16.72705,0.35,51.33,58.67,33.62,35.37
"2016-10-26 08:30:00",259168,0.179,132,13.25,92.2,49.29759,0,868.6114,0,-1.664,3.122,213,11.24,12.11,15.84787,0.323,51.27,58.73,33.61,35.39
"2016-10-26 08:40:00",259169,0.172,34.72,13.16,87.3,49.95788,0,868.6177,0,-1.416,3.121,202,11.24,12.11,15.1127,0.303,51.27,58.73,33.61,35.39
"2016-10-26 08:50:00",259170,0.18,10.71,12.92,89.1,52.22172,0,868.6367,0,-1.236,3.119,224,11.24,12.11,15.85924,0.304,51.27,58.67,33.61,35.37
"2016-10-26 09:00:00",259171,0.187,46.33,13.09,90.1,53.25539,0,868.4177,0,-1.917,3.124,206,11.24,12.11,16.62094,0.312,51.27,58.73,33.61,35.39
"2016-10-26 09:10:00",259172,0.285,1.34,13.51,86.8,56.20311,0,868.4261,0,-1.327,3.118,203,11.24,12.11,17.37885,0.31,51.27,58.73,33.61,35.39
"2016-10-26 09:20:00",259173,0.421,323.8,13.34,86.9,54.41482,0,868.5356,0,-1.556,3.12,227,11.23,12.11,17.7237,0.326,51.27,58.67,33.61,35.37
"2016-10-26 09:30:00",259174,0.158,310.6,13.41,87.6,55.50744,0,868.6683,0,-2.044,3.125,218,11.21,12.11,17.6858,0.319,51.27,58.67,33.61,35.37
"2016-10-26 09:40:00",259175,0.271,340.6,13.36,90.4,58.31367,0,868.6703,0,-1.688,3.122,230,11.25,12.1,18.25802,0.313,51.27,58.67,33.61,35.37
"2016-10-26 09:50:00",259176,0.31,330.4,13.54,89.3,59.11152,0,868.6703,0,-1.749,3.12,210,11.28,12.08,19.63742,0.332,51.27,58.67,33.61,35.37
"2016-10-26 10:00:00",259177,0.692,320.1,13.86,85.4,59.3041,0,868.702,0,-2.281,3.124,205,11.29,12.08,21.88841,0.37,51.27,58.73,33.61,35.39
"2016-10-26 10:10:00",259178,0.461,334.7,14.01,85.7,85.44051,0,868.9063,0,-1.743,3.119,198,11.31,12.08,24.76467,0.304,51.27,58.67,33.61,35.37
"2016-10-26 10:20:00",259179,0.389,328.3,13.91,89.3,250.2453,0,868.9252,0,-1.87,3.12,202,11.29,12.13,39.62727,0.159,51.27,58.67,33.61,35.37
"2016-10-26 10:30:00",259180,0.344,314.1,13.99,89.9,205.0509,0,868.9464,0,-2.521,3.128,225,11.32,12.15,29.84645,0.142,51.21,58.73,33.6,35.39
"2016-10-26 10:40:00",259181,0.323,289,13.49,91.8,214.6684,0,869.1464,0,-1.496,3.118,219,11.37,12.15,31.61617,0.142,51.21,58.73,33.6,35.39
"2016-10-26 10:50:00",259182,0.224,308.9,13.61,92,163.9598,0,869.1506,0,-1.912,3.123,271,11.36,12.15,27.31125,0.161,51.27,58.73,33.61,35.39
"2016-10-26 11:00:00",259183,0.464,41.47,13.66,88.6,183.3911,0,868.9948,0,-3.003,3.132,195,11.4,12.15,28.03884,0.149,51.27,58.67,33.61,35.37
"2016-10-26 11:10:00",259184,0.573,52.16,14.42,84.5,349.3893,0,868.7753,0,-0.315,3.099,305,11.4,12.13,62.92134,0.176,51.21,58.73,33.6,35.39
"2016-10-26 11:20:00",259185,0.399,56.81,14.73,80.3,206.4547,0,868.672,0,0.017,3.1,314,11.42,12.11,36.398,0.166,51.21,58.67,33.6,35.37
"2016-10-26 11:30:00",259186,0.392,24.26,14.09,82.6,205.8337,0,868.6389,0,-0.913,3.111,235,11.45,12.1,31.1749,0.144,51.27,58.73,33.61,35.39
"2016-10-26 11:40:00",259187,0.404,306.7,13.43,86.6,106.4828,0,868.6288,0,-1.036,3.116,237,11.44,12.12,14.2021,0.133,51.27,58.67,33.61,35.37
"2016-10-26 11:50:00",259188,0.371,327.8,13.42,87.1,167.3162,0,868.6317,0,-2.555,3.129,203,11.49,12.12,24.40936,0.144,51.21,58.67,33.6,35.37
"2016-10-26 12:00:00",259189,0.255,350.7,14.51,81.5,461.7928,0,868.4265,0,-2.884,3.126,194,11.51,12.1,68.50729,0.138,51.21,58.67,33.6,35.37
"2016-10-26 12:10:00",259190,0.42,27.53,14.41,77.46,224.7042,0,868.2413,0,-2.629,3.124,198,11.59,12.09,32.43213,0.14,51.27,58.67,33.61,35.37
"2016-10-26 12:20:00",259191,0.366,38.46,14.9,76.82,434.0401,0,868.134,0,-0.809,3.104,196,11.56,12.09,69.07192,0.149,51.21,58.73,33.6,35.39
"2016-10-26 12:30:00",259192,0.468,86.9,15.07,77.14,247.5206,0,867.9771,0,-1.955,3.118,193,11.63,12.06,34.58967,0.14,51.21,58.67,33.6,35.37
"2016-10-26 12:40:00",259193,0.199,294.8,14.42,80.8,302.0673,0,867.8287,0,-2.324,3.12,197,11.64,12.08,44.12135,0.142,51.21,58.67,33.6,35.37
"2016-10-26 12:50:00",259194,0.248,299.7,14.56,80.1,233.7672,0,867.7535,0,-2.322,3.124,189,11.65,12.07,32.42081,0.114,51.21,58.73,33.6,35.39
"2016-10-26 13:00:00",259195,0.145,310.7,14.01,83.2,294.2928,0,867.5997,0,-1.377,3.113,195,11.66,12.06,44.21281,0.137,51.16,58.67,33.58,35.37
"2016-10-26 13:10:00",259196,0.207,340,15.17,78.41,685.2628,0,867.3606,0,-2.408,3.116,192,11.69,12.08,102.1161,0.145,51.21,58.67,33.6,35.37
"2016-10-26 13:20:00",259197,0.386,17.33,15.9,72.37,655.5516,0,867.1913,0,-1.988,3.111,192,11.77,12.08,87.37085,0.132,51.21,58.73,33.6,35.39
"2016-10-26 13:30:00",259198,0.418,31.63,15.91,70.41,494.0685,0,866.9328,0,-2.212,3.113,193,11.72,12.07,56.48127,0.099,51.21,58.73,33.6,35.39
"2016-10-26 13:40:00",259199,0.287,171.5,15.75,70.7,493.6199,0,866.9614,0,-2.052,3.111,199,11.78,12.06,43.84584,0.089,51.16,58.67,33.58,35.37
"2016-10-26 13:50:00",259200,0.412,68.21,16.26,68.31,257.9446,0,867.0285,0,-1.602,3.105,214,11.81,12.06,32.36698,0.174,51.21,58.67,33.6,35.37
"2016-10-26 14:00:00",259201,0.426,184.8,16.14,65.97,187.1948,0,867.1885,0,-1.156,3.103,200,11.8,12.06,28.94985,0.156,51.16,58.73,33.58,35.39
"2016-10-26 14:10:00",259202,0.276,92.2,15.83,67.25,150.782,0,867.2933,0,-1.428,3.107,194,11.83,12.06,19.47551,0.128,51.05,58.73,33.56,35.39
"2016-10-26 14:20:00",259203,0.293,105.5,15.79,67.48,153.5779,0,867.1955,0,-1.835,3.11,188,11.96,12.07,20.81742,0.135,51.05,58.67,33.56,35.37
"2016-10-26 14:30:00",259204,0.698,152.1,15.6,65.94,125.9153,0,866.9907,0,-1.694,3.109,194,11.95,12.08,17.49151,0.139,51.1,58.67,33.57,35.37
"2016-10-26 14:40:00",259205,0.801,150.4,15.84,64.92,117.0322,0,867.0251,0,-2.296,3.114,189,11.95,12.11,16.90611,0.142,51.05,58.73,33.56,35.39
"2016-10-26 14:50:00",259206,0.776,142.4,15.77,65.28,114.2143,0,867.1116,0,-2.334,3.115,193,12.03,12.12,16.78219,0.143,51.21,58.73,33.6,35.39
"2016-10-26 15:00:00",259207,0.427,132.2,15.72,65.41,90.61914,0,867.1282,0,-2.087,3.113,195,12.06,12.14,12.38728,0.136,51.1,58.73,33.57,35.39
"2016-10-26 15:10:00",259208,0.147,154.2,15.58,70.09,109.0315,0,867.1472,0,-2.555,3.118,192,12.09,12.15,14.77888,0.135,51.1,58.67,33.57,35.37
"2016-10-26 15:20:00",259209,0.211,139.8,15.45,69.38,103.2624,0,867.1883,0,-2.452,3.117,184,12.13,12.15,14.14231,0.136,51.1,58.67,33.57,35.37
"2016-10-26 15:30:00",259210,0.218,173.8,15.41,71.47,90.47405,0,867.3232,0,-2.255,3.116,180,12.17,12.18,11.91797,0.132,51.1,58.67,33.57,35.37
"2016-10-26 15:40:00",259211,0.55,137,15.34,70.1,59.9562,0,867.1915,0,-1.9,3.113,201,12.18,12.22,7.507045,0.124,51.1,58.73,33.57,35.39
"2016-10-26 15:50:00",259212,0.513,151.8,15.11,72.48,38.7722,0,867.0627,0,-2.221,3.118,195,12.2,12.22,4.642182,0.119,51.1,58.73,33.57,35.39
"2016-10-26 16:00:00",259213,0.538,155.2,14.95,73.11,40.67057,0,866.901,0,-2.559,3.122,192,12.24,12.21,5.203039,0.127,51.1,58.73,33.57,35.39
"2016-10-26 16:10:00",259214,0.225,94.9,14.87,73.57,31.35187,0,867.1307,0,-2.48,3.121,190,12.3,12.2,4.134389,0.132,51.1,58.67,33.57,35.37
"2016-10-26 16:20:00",259215,0.337,114.5,14.61,76.12,29.42603,0,867.1517,0,-1.979,3.118,197,12.32,12.21,3.71754,0.126,51.1,58.73,33.57,35.39
"2016-10-26 16:30:00",259216,0.173,102.4,14.38,78.2,20.37459,0,867.139,0,-1.629,3.116,207,12.29,12.22,2.341936,0.113,51.05,58.73,33.56,35.39
"2016-10-26 16:40:00",259217,0.104,118,14.18,80.4,11.05589,0,866.9559,0,-1.122,3.112,219,12.34,12.26,0.9852807,0.085,51.05,58.73,33.56,35.39
"2016-10-26 16:50:00",259218,0.223,170.1,14.02,80.8,6.331686,0,866.7094,0,-1.074,3.112,221,12.39,12.27,0.4092704,0.064,51.1,58.67,33.57,35.37
"2016-10-26 17:00:00",259219,0.211,288,13.98,77.3,2.645081,0,866.821,0,-1.146,3.112,237,12.4,12.28,0.3031633,0.137,51.05,58.67,33.56,35.37
"2016-10-26 17:10:00",259220,0.059,174.9,13.77,79.11,0,0,866.6442,0,-0.893,3.114,230,12.41,12.28,0,0,51.05,58.67,33.56,35.37
"2016-10-26 17:20:00",259221,0.007,147.7,13.21,83.8,0,0,866.602,0,-0.982,3.117,243,12.41,12.28,0,0,51.05,58.67,33.56,35.37
"2016-10-26 17:30:00",259222,0.439,185.5,12.72,86.1,0,0,866.3914,0,-0.476,3.113,286,12.41,12.28,0,0,51.05,58.67,33.56,35.37
"2016-10-26 17:40:00",259223,0.055,167.6,12.63,86.3,0,0,866.3809,0,-0.584,3.115,256,12.41,12.28,0,0,51.05,58.67,33.56,35.37
"2016-10-26 17:50:00",259224,0.037,154.7,12.61,86.3,0,0,866.2672,0,-1.3,3.122,234,12.42,12.28,0,0,50.99,58.67,33.54,35.37
"2016-10-26 18:00:00",259225,0.148,201,12.81,84.4,0.2751198,0,866.1849,0,-1.658,3.121,227,12.45,12.27,0.3979018,0.599,51.05,58.61,33.56,35.36
"2016-10-26 18:10:00",259226,0,0,13.11,83.1,0.1454205,0,866.4146,0,-1.855,3.126,216,12.47,12.31,0.3448482,0.486,50.99,58.67,33.54,35.37
"2016-10-26 18:20:00",259227,0.093,212.2,12.81,85.4,0,0,866.6484,0,-2.011,3.128,219,12.48,12.32,0.007579082,0,51.05,58.61,33.56,35.36
"2016-10-26 18:30:00",259228,0.038,203.5,12.84,85.8,0,0,866.7494,0,-3.39,3.141,200,12.48,12.32,0.4471658,0,51.05,58.67,33.56,35.37
"2016-10-26 18:40:00",259229,0.027,203.1,12.7,88.5,0,0,866.9011,0,-3.014,3.139,231,12.49,12.34,0.3107423,0,51.05,58.67,33.56,35.37
"2016-10-26 18:50:00",259230,0,0,12.5,91.7,0,0.5,866.7811,0,-2.912,3.138,196,12.48,12.39,0.3600064,0,50.99,58.67,33.54,35.37
"2016-10-26 19:00:00",259231,0,0,12.5,94,0,0,866.8948,0,-3.165,3.14,202,12.48,12.38,0.4547449,0,50.99,58.67,33.54,35.37
"2016-10-26 19:10:00",259232,0,0,12.49,97.4,0,0,867.0022,0,-2.25,3.132,193,12.48,12.37,0.4320077,0,51.05,58.67,33.56,35.37
"2016-10-26 19:20:00",259233,0.053,127.5,12.38,100,0,0,866.998,0,-2.099,3.131,190,12.49,12.39,0.181898,0,50.99,58.67,33.54,35.37
"2016-10-26 19:30:00",259234,0.055,179.1,12.28,100,0,0.5,867.2191,0,-1.973,3.13,190,12.48,12.45,0.06821174,0,50.99,58.67,33.54,35.37
"2016-10-26 19:40:00",259235,0.086,224.6,12.4,100,0.1100479,1,867.3076,0,-2.863,3.138,187,12.48,12.44,0.272847,0.562,50.99,58.61,33.54,35.36
"2016-10-26 19:50:00",259236,0.472,346.3,12.43,100,0.0235817,0.5,867.4045,0,-1.359,3.124,184,12.48,12.43,0.1174758,0.161,50.99,58.67,33.54,35.37
"2016-10-26 20:00:00",259237,1.031,307,12.2,100,0,0,867.4066,0,-1.7,3.129,198,12.48,12.42,0.03031633,0,50.99,58.67,33.54,35.37
"2016-10-26 20:10:00",259238,1.351,291,11.79,100,0,0.5,867.3834,0,-2.833,3.142,195,12.48,12.42,0.03789541,0,51.05,58.67,33.56,35.37
"2016-10-26 20:20:00",259239,1.302,329.2,11.57,100,0,0,867.5119,0,-1.51,3.13,249,12.44,12.42,0.231162,0,51.16,58.67,33.58,35.37
"2016-10-26 20:30:00",259240,1.581,289.5,11.34,100,0,0,867.7309,0,-1.262,3.129,275,12.44,12.46,0.280426,0,51.16,58.67,33.58,35.37
"2016-10-26 20:40:00",259241,0.669,170.6,11.09,100,0,1,867.9332,0,-2.442,3.142,184,12.43,12.48,0.1061071,0,51.27,58.67,33.61,35.37
"2016-10-26 20:50:00",259242,1.267,303,10.85,100,0,1,868.2259,0,-1.99,3.139,241,12.42,12.49,0.05305357,0,51.38,58.73,33.64,35.39
"2016-10-26 21:00:00",259243,1.147,298.2,10.59,100,0,1.5,868.5818,0,-3.216,3.152,182,12.43,12.5,0.0189477,0,51.71,58.73,33.72,35.39
"2016-10-26 21:10:00",259244,1.292,331.1,10.47,98.6,0,1,868.7546,0,-1.309,3.134,272,12.44,12.5,0.03789541,0,52.44,58.73,33.89,35.39
"2016-10-26 21:20:00",259245,1.191,337,10.36,95.2,0,0.5,868.8768,0,-1.081,3.132,300,12.45,12.5,0.1326339,0,52.94,58.85,34.02,35.41
"2016-10-26 21:30:00",259246,0.587,343,10.25,93.7,0,0,868.9167,0,-3.407,3.156,188,12.45,12.5,0.4282239,0,53.05,59.26,34.04,35.51
"2016-10-26 21:40:00",259247,0.377,147.5,10.09,97.2,0,0.5,868.8115,0,-1.683,3.14,227,12.44,12.5,0.454758,0,53,59.61,34.03,35.59
"2016-10-26 21:50:00",259248,0.044,133.4,10.01,98.3,0,0,868.9104,0,-1.837,3.141,226,12.46,12.51,0.4547712,0,53,59.79,34.03,35.63
"2016-10-26 22:00:00",259249,0.431,25.9,10.05,93.8,0,0,868.5419,0,-0.138,3.124,321,12.47,12.52,0.4585825,0,52.94,60.03,34.02,35.69
"2016-10-26 22:10:00",259250,0.407,200.7,9.92,94.6,0,0,868.485,0,-0.145,3.126,309,12.45,12.52,0.4813253,0,52.88,60.21,34,35.73
"2016-10-26 22:20:00",259251,1.034,179.2,9.72,98.5,0,0,868.2238,0,-0.44,3.129,284,12.45,12.52,0.4699761,0,52.88,60.27,34,35.74
"2016-10-26 22:30:00",259252,0.577,186.5,9.7,99.1,0,0,868.3312,0,-0.7,3.132,268,12.47,12.52,0.4548478,0,52.77,60.33,33.98,35.75
"2016-10-26 22:40:00",259253,0.207,193.5,9.63,100,0,0,868.1649,0,-1.065,3.136,245,12.47,12.53,0.4548564,0,52.72,60.33,33.96,35.75
"2016-10-26 22:50:00",259254,0.121,262,9.64,100,0,0,868.1459,0,-0.912,3.134,274,12.48,12.53,0.4548767,0,52.66,60.33,33.95,35.75
"2016-10-26 23:00:00",259255,0.027,13.47,9.63,100,0,0,868.2133,0,-1.522,3.14,233,12.46,12.53,0.4624546,0,52.6,60.33,33.94,35.75
"2016-10-26 23:10:00",259256,0.21,222.6,9.63,100,0,0,868.1354,0,-1.552,3.141,223,12.44,12.53,0.4548726,0,52.55,60.33,33.92,35.75
"2016-10-26 23:20:00",259257,0.571,284,9.58,100,0,0,868.1332,0,-2.572,3.151,210,12.41,12.54,0.454878,0,52.49,60.27,33.91,35.74
"2016-10-26 23:30:00",259258,0.319,169.4,9.57,100,0,0,867.83,0,-2.577,3.152,209,12.37,12.54,0.4548877,0,52.49,60.27,33.91,35.74
"2016-10-26 23:40:00",259259,0.27,186.6,9.43,100,0,0,867.6404,0,-2.625,3.152,204,12.37,12.55,0.4548877,0,52.44,60.27,33.89,35.74
"2016-10-26 23:50:00",259260,0.159,187.3,9.43,100,0,0,867.4086,0,-2.424,3.15,215,12.39,12.6,0.4359364,0,52.38,60.27,33.88,35.74
